Rifle, CO

1:09 PM MDT on June 28, 2017 (GMT -0600)
Garfield County Regional

Weather History for KRIL - March, 2013

Change the Weather History Date:

Tuesday, March 26, 2013

  Actual Average Record
Temperature  
Mean Temperature 42 °F 42 °F  
Max Temperature 62 °F 57 °F 75 °F (1971)
Min Temperature 22 °F 28 °F 12 °F (1931)
Degree Days  
Heating Degree Days 23 23  
Month to date heating degree days 682 678  
Since 1 July heating degree days 5736 5675  
Cooling Degree Days 0 0  
Month to date cooling degree days 0 0  
Year to date cooling degree days 0 0  
Moisture  
Dew Point 15 °F    
Average Humidity 43    
Maximum Humidity 68    
Minimum Humidity 18    
Precipitation  
Precipitation 0.00 in 0.05 in 0.43 in (1998)
Month to date precipitation 0.55 0.92  
Year to date precipitation 1.32 2.49  
Sea Level Pressure  
Sea Level Pressure 30.04 in    
Wind  
Wind Speed 6 mph (WSW)    
Max Wind Speed 26 mph    
Max Gust Speed 35 mph    
Visibility 10 miles    
Events      
T = Trace of Precipitation, MM = Missing Value Source: NWS Daily Summary

Daily Weather History Graph

Daily Weather History Graph

Search for Another Location

Airport or City:

Trip Planner

Search our weather history database for the weather conditions in past years. The results will help you decide how hot, cold, wet, or windy it might be!

Date:

Astronomy

Mar. 26, 2013 Rise Set
Actual Time 7:04 AM MDT 7:29 PM MDT
Civil Twilight 6:37 AM MDT 7:56 PM MDT
Nautical Twilight 6:05 AM MDT 8:27 PM MDT
Astronomical Twilight 5:33 AM MDT 9:00 PM MDT
Moon 7:09 PM MDT (3/26) 6:22 AM MDT (3/26)
Length of Visible Light 13h 18m
Length of Day
12h 25m
Waxing Gibbous, 99% of the Moon is Illuminated
Mar 26
Waxing Gibbous
Mar 27
Full
Apr 2
Last Quarter
Apr 10
New
Apr 18
First Quarter

Hourly Weather History & Observations

Time (MDT) Temp. Windchill Dew Point Humidity Pressure Visibility Wind Dir Wind Speed Gust Speed Precip Events Conditions
12:53 AM 25.0 °F - 10.9 °F 55% 30.22 in 10.0 mi Calm Calm - N/A   Clear
1:53 AM 23.0 °F 17.0 °F 12.0 °F 63% 30.21 in 10.0 mi SSE 4.6 mph - N/A   Clear
2:53 AM 23.0 °F - 12.9 °F 65% 30.21 in 10.0 mi Calm Calm - N/A   Mostly Cloudy
3:53 AM 25.0 °F - 14.0 °F 63% 30.19 in 10.0 mi Calm Calm - N/A   Overcast
4:53 AM 25.0 °F 15.5 °F 15.1 °F 66% 30.17 in 10.0 mi SSW 9.2 mph - N/A   Overcast
5:53 AM 26.1 °F - 14.0 °F 60% 30.17 in 10.0 mi Calm Calm - N/A   Partly Cloudy
6:53 AM 25.0 °F - 14.0 °F 63% 30.18 in 10.0 mi Calm Calm - N/A   Mostly Cloudy
7:53 AM 26.1 °F - 15.1 °F 63% 30.19 in 10.0 mi Calm Calm - N/A   Overcast
8:53 AM 28.9 °F - 14.0 °F 54% 30.19 in 10.0 mi Calm Calm - N/A   Overcast
9:53 AM 32.0 °F - 12.0 °F 44% 30.18 in 10.0 mi Calm Calm - N/A   Clear
10:53 AM 37.9 °F 34.4 °F 10.9 °F 33% 30.11 in 10.0 mi ENE 4.6 mph - N/A   Scattered Clouds
11:53 AM 43.0 °F 40.3 °F 12.9 °F 30% 30.06 in 10.0 mi North 4.6 mph - N/A   Mostly Cloudy
12:53 PM 45.0 °F 43.5 °F 14.0 °F 29% 30.03 in 10.0 mi Variable 3.5 mph - N/A   Clear
1:53 PM 51.1 °F - 14.0 °F 23% 29.99 in 10.0 mi Variable 4.6 mph - N/A   Clear
2:53 PM 54.0 °F - 15.1 °F 22% 29.93 in 10.0 mi Variable 5.8 mph - N/A   Clear
3:53 PM 61.0 °F - 17.1 °F 18% 29.86 in 10.0 mi West 23.0 mph 31.1 mph N/A   Partly Cloudy
4:53 PM 59.0 °F - 15.1 °F 18% 29.85 in 10.0 mi WNW 19.6 mph 24.2 mph N/A   Clear
5:53 PM 57.9 °F - 16.0 °F 19% 29.85 in 10.0 mi West 16.1 mph 25.3 mph N/A   Clear
6:53 PM 57.0 °F - 15.1 °F 19% 29.86 in 10.0 mi West 15.0 mph - N/A   Clear
7:53 PM 53.1 °F - 15.1 °F 22% 29.88 in 10.0 mi WSW 13.8 mph - N/A   Clear
8:53 PM 45.0 °F 43.5 °F 19.0 °F 36% 29.93 in 10.0 mi Variable 3.5 mph - N/A   Clear
9:53 PM 44.1 °F 40.8 °F 19.0 °F 37% 29.94 in 10.0 mi South 5.8 mph - N/A   Clear
10:53 PM 42.1 °F 38.4 °F 21.9 °F 45% 29.93 in 10.0 mi SE 5.8 mph - N/A   Overcast
11:53 PM 42.1 °F 40.2 °F 21.9 °F 45% 29.91 in 10.0 mi WNW 3.5 mph - N/A   Overcast